[[{"header":{"parameterUnit":"m.s-1","parameterCategory":1,"la1":30.2991,"la2":30.254,"lo1":-89.0895,"lo2":-89.0444,"dy":0.0017,"dx":0.0017,"nx":28,"ny":28,"refTime":"2023-07-20T03:00:00:Z","depth":0,"parameterNumber":2,"parameterNumberName":"U-component_of_WINDS"},"data":[0,0,0,0,0,0,0,0,0,0,0,0,0,0,0,0,0,0,0,0,0,0,0,0,0,0,0,0,0,0,0,0,0,0,0,0,0,0,0,0,0,0,0,0,0,0,0,0,0,0,0,0,0,0,0,0,0,0,3.7297,3.7299,0,3.7425,3.7427,3.7428,3.7444,3.7442,3.7441,3.744,3.7572,3.7577,3.7581,0,0,0,0,0,0,0,0,0,0,0,0,0,3.7069,3.7073,3.7297,3.7299,3.73,3.7425,3.7427,3.7428,3.7444,3.7442,3.7441,3.7439,3.7571,3.7576,3.7582,0,0,0,0,0,0,0,0,0,0,0,0,0,3.718,3.7074,3.7297,3.7323,3.7327,3.7425,3.7427,3.7429,3.7444,3.7442,3.744,3.7439,3.7569,3.7576,3.7583,3.7664,0,0,3.7604,3.7607,0,0,0,0,0,0,0,0,3.7173,3.7188,3.7318,3.7321,3.7326,3.7416,3.7395,3.7508,3.7445,3.74,3.744,3.7438,3.7522,3.7533,3.7561,3.767,3.7676,3.7605,3.7609,3.7612,3.7614,0,0,0,0,0,0,0,3.7166,3.7183,3.7348,3.7319,3.7324,3.7329,3.7343,3.7416,3.747,3.7403,3.7405,3.742,3.7524,3.7554,3.7564,3.7678,3.7604,3.7611,3.7615,3.7618,3.7862,3.7864,0,0,0,0,0,0,3.7153,3.7176,3.7344,3.7352,3.7243,3.7335,3.735,3.7389,3.7469,3.7479,3.7421,3.742,3.7543,3.7556,3.7569,3.767,3.7612,3.7619,3.7623,3.786,3.7863,3.7865,0,0,0,0,0,0,3.7148,3.7168,3.7339,3.7264,3.7287,3.7341,3.7385,3.7393,3.7423,3.7482,3.7492,3.7442,3.7542,3.7559,3.764,3.7675,3.7622,3.7628,3.7857,3.7861,3.7864,3.7873,0,0,0,0,0,0,3.7141,3.7166,3.7196,3.7265,3.729,3.7407,3.7387,3.7397,3.7435,3.7435,3.7505,3.7514,3.7542,3.763,3.7647,3.7684,3.7634,3.7854,3.7859,3.7863,3.787,3.7876,3.7882,0,0,0,0,0,3.7133,3.7194,3.7198,3.7218,3.733,3.7409,3.7424,3.7454,3.7438,3.7469,3.7508,3.7512,3.7669,3.7638,3.7658,3.7697,3.7852,3.7857,3.7862,3.7867,3.7875,3.7882,0,0,0,0,0,0,3.7128,3.7203,3.7208,3.7293,3.7345,3.7412,3.7452,3.7461,3.7518,3.7515,3.7551,3.7566,3.7647,3.768,3.7645,3.7781,3.7759,3.7768,3.7756,3.7764,3.777,3.776,3.7639,0,0,0,0,0,3.7136,3.7194,3.7257,3.7326,3.7351,3.7398,3.7433,3.7452,3.7507,3.7529,3.7573,3.7627,3.7689,3.7728,3.7788,3.7875,3.7892,3.7912,3.7918,3.7923,3.793,3.7981,3.7991,3.7882,3.7882,3.7882,0,0,3.7155,3.7203,3.7237,3.7326,3.7368,3.7428,3.7416,3.7479,3.7524,3.7539,3.7618,3.7653,3.7716,3.7801,3.7841,3.7831,3.7964,3.7929,3.7933,3.7938,3.7987,3.7997,3.8007,3.7885,3.7885,3.7884,0,0,3.7219,3.7261,3.7324,3.7366,3.7431,3.7461,3.7476,3.7543,3.7566,3.7647,3.766,3.7714,3.7819,3.7863,3.79,3.7983,3.799,3.8002,3.8033,3.8082,3.8091,3.8098,3.8129,3.814,3.8009,3.8009,3.8009,0,3.7234,3.7324,3.7355,3.7418,3.7458,3.7474,3.7538,3.7578,3.7659,3.7686,3.7674,3.7807,3.785,3.7947,3.7968,3.7996,3.8015,3.7994,3.8087,3.8095,3.8103,3.8132,3.8144,3.801,3.801,3.801,3.801,0,3.734,3.7402,3.7445,3.7523,3.7567,3.763,3.7672,3.7713,3.7729,3.7761,3.7844,3.7896,3.7968,3.7992,3.8008,3.8092,3.8084,3.8079,3.8058,3.8114,3.8142,3.8154,3.8012,3.8012,3.8011,3.8011,0,0,3.7403,3.7498,3.7513,3.7549,3.7622,3.7672,3.7737,3.7806,3.7842,3.7897,3.7954,3.8043,3.8039,3.8081,3.8102,3.8144,3.8209,3.8135,3.8137,3.8147,3.8306,3.831,3.8322,3.8214,3.8216,3.8218,3.8301,0,3.7476,3.7592,3.7622,3.7721,3.778,3.7797,3.7855,3.7906,3.7939,3.7994,3.803,3.8093,3.8083,3.8109,3.8152,3.8192,3.8241,3.8186,3.8268,3.827,3.8251,3.8337,3.834,3.8416,3.8313,3.8315,3.8316,0,3.7577,3.7634,3.7739,3.7806,3.7832,3.7882,3.795,3.8002,3.8062,3.8083,3.813,3.8147,3.8217,3.8193,3.829,3.8252,3.8288,3.8313,3.8316,3.8325,3.8296,3.8348,3.8441,3.8453,3.8334,3.8332,3.8331,0,3.7613,3.7717,3.7794,3.7824,3.7904,3.7939,3.7974,3.8032,3.8073,3.8132,3.8159,3.8226,3.8262,3.8314,3.835,3.8328,3.8445,3.8423,3.8465,3.8464,3.8489,3.8487,3.8589,3.8511,3.8511,3.8511,3.8511,0,3.7692,3.7755,3.7812,3.7858,3.7931,3.7966,3.8037,3.8073,3.8124,3.818,3.8199,3.8251,3.8294,3.8352,3.8381,3.8458,3.8475,3.8494,3.8501,3.8493,3.849,3.8516,3.8512,3.8514,3.8513,3.8513,3.8512,0,3.7744,3.7785,3.7869,3.7938,3.7957,3.8007,3.8067,3.8114,3.8148,3.8218,3.8236,3.8289,3.8359,3.84,3.8487,3.8507,3.8593,3.8597,3.8572,3.8575,3.8615,3.8611,3.8738,3.8757,3.8666,3.8667,3.8668,0,3.7792,3.7841,3.7916,3.7954,3.799,3.8051,3.8093,3.813,3.8173,3.8246,3.8284,3.8355,3.8413,3.8524,3.8571,3.8639,3.8645,3.8685,3.8655,3.8646,3.8647,3.8643,3.8649,3.869,3.869,3.8691,3.8692,0,3.7872,3.789,3.7949,3.8016,3.8065,3.812,3.8174,3.8204,3.8251,3.8298,3.837,3.8415,3.8505,3.8576,3.8648,3.8685,3.8697,3.8701,3.8714,3.8706,3.869,3.87,3.8586,3.8698,3.8697,3.8697,3.8696,3.8696,3.7924,3.797,3.8029,3.8095,3.814,3.8191,3.8239,3.8279,3.8338,3.8414,3.8433,3.8508,3.8569,3.8667,3.8706,3.8766,3.876,3.8779,3.8784,3.8788,3.879,3.868,3.8779,3.8779,3.8779,3.8779,3.8779,0,3.8006,3.8046,3.8106,3.8181,3.8234,3.824,3.8301,3.8344,3.841,3.8465,3.8522,3.8605,3.8674,3.8727,3.8798,3.8836,3.8844,3.8854,3.8851,3.886,3.8791,3.8772,3.8847,3.8847,3.8847,3.8847,3.8847,3.8847,3.8055,3.8132,3.8157,3.8258,3.8297,3.8371,3.8405,3.8453,3.8497,3.8588,3.8645,3.8679,3.8735,3.881,3.8874,3.8888,3.8913,3.8923,3.8938,3.8872,3.8865,3.8858,3.8841,3.8928,3.8928,3.9002,3.9003,3.9003]},{"header":{"parameterUnit":"m.s-1","parameterCategory":1,"la1":30.2991,"la2":30.254,"lo1":-89.0895,"lo2":-89.0444,"dy":0.0017,"dx":0.0017,"nx":28,"ny":28,"refTime":"2023-07-20T03:00:00:Z","depth":0,"parameterNumber":3,"parameterNumberName":"V-component_of_WINDS"},"data":[0,0,0,0,0,0,0,0,0,0,0,0,0,0,0,0,0,0,0,0,0,0,0,0,0,0,0,0,0,0,0,0,0,0,0,0,0,0,0,0,0,0,0,0,0,0,0,0,0,0,0,0,0,0,0,0,0,0,-0.858,-0.858,0,-0.8629,-0.863,-0.863,-0.8613,-0.8612,-0.8611,-0.861,-0.8663,-0.8665,-0.8668,0,0,0,0,0,0,0,0,0,0,0,0,0,-0.8473,-0.8475,-0.858,-0.858,-0.8581,-0.8629,-0.863,-0.863,-0.8613,-0.8612,-0.8611,-0.861,-0.8662,-0.8665,-0.8668,0,0,0,0,0,0,0,0,0,0,0,0,0,-0.8521,-0.8476,-0.8579,-0.8578,-0.8578,-0.8629,-0.863,-0.8631,-0.8614,-0.8612,-0.861,-0.8609,-0.8661,-0.8665,-0.8668,-0.8723,0,0,-0.8679,-0.8681,0,0,0,0,0,0,0,0,-0.8518,-0.8525,-0.8578,-0.8578,-0.8579,-0.8613,-0.8611,-0.8662,-0.8614,-0.86,-0.861,-0.8608,-0.8648,-0.8652,-0.8665,-0.8726,-0.8728,-0.868,-0.8682,-0.8683,-0.8684,0,0,0,0,0,0,0,-0.8515,-0.8522,-0.8599,-0.8578,-0.8579,-0.8576,-0.8581,-0.8621,-0.8633,-0.8601,-0.86,-0.8606,-0.8648,-0.8662,-0.8666,-0.8729,-0.868,-0.8683,-0.8685,-0.8686,-0.8839,-0.8841,0,0,0,0,0,0,-0.8511,-0.852,-0.8598,-0.8601,-0.8544,-0.8579,-0.8585,-0.8604,-0.8632,-0.8635,-0.8608,-0.8605,-0.8656,-0.8662,-0.8668,-0.8736,-0.8683,-0.8687,-0.8689,-0.8837,-0.8839,-0.8841,0,0,0,0,0,0,-0.8509,-0.8518,-0.8596,-0.856,-0.857,-0.8583,-0.8604,-0.8606,-0.862,-0.8637,-0.8639,-0.862,-0.8655,-0.8663,-0.871,-0.8737,-0.8688,-0.8692,-0.8835,-0.8838,-0.884,-0.8871,0,0,0,0,0,0,-0.8506,-0.8517,-0.8538,-0.856,-0.8571,-0.8636,-0.8606,-0.8608,-0.8626,-0.8623,-0.8649,-0.8652,-0.8655,-0.8705,-0.8714,-0.8742,-0.8695,-0.8833,-0.8836,-0.884,-0.8868,-0.8874,-0.888,0,0,0,0,0,-0.8502,-0.8544,-0.8539,-0.8548,-0.8597,-0.8637,-0.8644,-0.8646,-0.8628,-0.8649,-0.8661,-0.8651,-0.8733,-0.871,-0.872,-0.8749,-0.8831,-0.8835,-0.8839,-0.8865,-0.8873,-0.888,0,0,0,0,0,0,-0.8525,-0.8547,-0.8541,-0.8592,-0.8613,-0.8634,-0.8661,-0.8655,-0.8681,-0.8678,-0.868,-0.8686,-0.8735,-0.8746,-0.872,-0.8805,-0.8779,-0.8786,-0.8795,-0.8803,-0.881,-0.8806,-0.8698,0,0,0,0,0,-0.8536,-0.8566,-0.8584,-0.8627,-0.8638,-0.8648,-0.8665,-0.8665,-0.8687,-0.8696,-0.8711,-0.8733,-0.8764,-0.8784,-0.8813,-0.8869,-0.8875,-0.8894,-0.8901,-0.8906,-0.8912,-0.8943,-0.8952,-0.8855,-0.8855,-0.8855,0,0,-0.8559,-0.8575,-0.8594,-0.8632,-0.8648,-0.868,-0.8655,-0.869,-0.8714,-0.8702,-0.8747,-0.8758,-0.8784,-0.8835,-0.8859,-0.8847,-0.894,-0.8911,-0.8915,-0.8918,-0.8949,-0.8958,-0.8966,-0.8858,-0.8858,-0.8857,0,0,-0.8617,-0.8632,-0.867,-0.8687,-0.8711,-0.8718,-0.8727,-0.875,-0.8757,-0.8802,-0.8794,-0.8823,-0.8876,-0.8894,-0.8911,-0.8977,-0.897,-0.8987,-0.902,-0.9051,-0.9059,-0.9066,-0.9091,-0.9099,-0.8992,-0.8992,-0.8993,0,-0.8643,-0.869,-0.8691,-0.8726,-0.8744,-0.8734,-0.8774,-0.879,-0.8823,-0.8836,-0.8822,-0.8889,-0.8905,-0.8961,-0.8978,-0.8991,-0.9003,-0.8984,-0.9058,-0.9064,-0.9071,-0.9095,-0.9104,-0.8994,-0.8994,-0.8994,-0.8994,0,-0.8721,-0.8754,-0.8782,-0.8814,-0.8835,-0.8873,-0.888,-0.8901,-0.89,-0.8908,-0.8955,-0.8974,-0.9008,-0.9021,-0.902,-0.9078,-0.907,-0.9057,-0.9031,-0.9082,-0.9105,-0.9114,-0.8997,-0.8997,-0.8996,-0.8995,0,0,-0.8796,-0.8828,-0.8838,-0.8853,-0.888,-0.8906,-0.8943,-0.8975,-0.8994,-0.9018,-0.905,-0.9095,-0.9084,-0.9102,-0.9103,-0.913,-0.9183,-0.9114,-0.9115,-0.9127,-0.925,-0.9261,-0.9271,-0.9178,-0.918,-0.9181,-0.9249,0,-0.8857,-0.8922,-0.8924,-0.8984,-0.9015,-0.9006,-0.9039,-0.906,-0.9069,-0.9097,-0.9107,-0.914,-0.9121,-0.9133,-0.9159,-0.9171,-0.9208,-0.9166,-0.921,-0.9211,-0.9204,-0.9283,-0.9294,-0.9356,-0.9257,-0.9259,-0.926,0,-0.8937,-0.8963,-0.9026,-0.9049,-0.9062,-0.9092,-0.9122,-0.9149,-0.9173,-0.9177,-0.9199,-0.9196,-0.9236,-0.9208,-0.9264,-0.9235,-0.9253,-0.9262,-0.9265,-0.9269,-0.9239,-0.9291,-0.9376,-0.9386,-0.9273,-0.9272,-0.9271,0,-0.8986,-0.9037,-0.9081,-0.9094,-0.9122,-0.9143,-0.9156,-0.9178,-0.9197,-0.9224,-0.9237,-0.9269,-0.9286,-0.9311,-0.9317,-0.9297,-0.9373,-0.9346,-0.9379,-0.9379,-0.9396,-0.9395,-0.9487,-0.9407,-0.9406,-0.9406,-0.9406,0,-0.9055,-0.9094,-0.9104,-0.9131,-0.9175,-0.9178,-0.9222,-0.9233,-0.9253,-0.9283,-0.9278,-0.9306,-0.9312,-0.9343,-0.9348,-0.9394,-0.9402,-0.9408,-0.9409,-0.9409,-0.9408,-0.9421,-0.9417,-0.9409,-0.9408,-0.9408,-0.9407,0,-0.9118,-0.9125,-0.9174,-0.9196,-0.9203,-0.9234,-0.9254,-0.9281,-0.9289,-0.9328,-0.9337,-0.9351,-0.9387,-0.9395,-0.9438,-0.9441,-0.9496,-0.9493,-0.9488,-0.9488,-0.9521,-0.9518,-0.9625,-0.9639,-0.9549,-0.9549,-0.955,0,-0.9162,-0.9192,-0.9217,-0.9237,-0.9251,-0.9282,-0.9302,-0.9306,-0.9328,-0.9357,-0.9381,-0.9416,-0.9444,-0.9502,-0.9516,-0.9549,-0.9547,-0.9582,-0.9552,-0.9552,-0.9549,-0.9548,-0.9551,-0.9588,-0.9589,-0.959,-0.9591,0,-0.9239,-0.9242,-0.927,-0.9301,-0.9325,-0.9349,-0.9372,-0.9389,-0.9397,-0.9421,-0.9457,-0.9479,-0.9523,-0.9558,-0.9591,-0.9605,-0.96,-0.96,-0.961,-0.961,-0.9607,-0.961,-0.9505,-0.9598,-0.9597,-0.9596,-0.9596,-0.9596,-0.9294,-0.9321,-0.9343,-0.9376,-0.9394,-0.9416,-0.9443,-0.9455,-0.9484,-0.952,-0.9521,-0.9561,-0.9585,-0.9629,-0.9645,-0.9677,-0.9667,-0.968,-0.9684,-0.9687,-0.9691,-0.9601,-0.9683,-0.9683,-0.9683,-0.9683,-0.9682,0,-0.9372,-0.9387,-0.9416,-0.9449,-0.9475,-0.9467,-0.9492,-0.9515,-0.955,-0.9572,-0.96,-0.9643,-0.9677,-0.9694,-0.9729,-0.9751,-0.975,-0.976,-0.9759,-0.9763,-0.9698,-0.9686,-0.9761,-0.9761,-0.9761,-0.9761,-0.9761,-0.9761,-0.9416,-0.9461,-0.9466,-0.9521,-0.9535,-0.9573,-0.9589,-0.961,-0.9628,-0.9675,-0.9704,-0.9714,-0.9735,-0.9771,-0.9803,-0.9807,-0.9821,-0.9833,-0.9836,-0.9775,-0.9767,-0.976,-0.9749,-0.9836,-0.9836,-0.9899,-0.99,-0.99]}]]